T 2003 Apr. 10.8911 TT MPC q 8.128907 (2000.0) P Q Peri. 154.5974 +0.3500963 +0.8706353 Node 226.3913 +0.7571966 -0.0458505 e 1.0 Incl. 151.4922 +0.5514399 -0.4897875 >From 79 observations 2003 Sept. 27-Nov. 26.
m1 = 5.5 + 5 logΔ + 10.0 log r